User: anonymous   Login
Location: Asheville, NC
(35.6000°N, 82.5500°W)
Time: 14:40:32
(UTC-05:00)
Language:

ITAMSAT 1 - Orbit

View from above orbital plane
View from above orbital plane
View from above satellite
View from above satellite

Ground track
Ground track

The orbit data is extracted from the following two-line orbital elements,

1 22826U 93061D   18016.93079332 -.00000018 +00000-0 +10840-4 0  9998
2 22826 098.8372 350.5247 0009878 060.9120 299.3050 14.30350019267880
Epoch (UTC): 16 January 2018 22:20:20
Eccentricity: 0.0009878
inclination: 98.8372°
perigee height: 783 km
apogee height: 797 km
right ascension of ascending node: 350.5247°
argument of perigee: 60.9120°
revolutions per day: 14.30350019
mean anomaly at epoch: 299.3050°
orbit number at epoch: 26788

The dashed part of the orbit path shows where the satellite is in the earth's shadow,  

DLR